{"data":{"norad_id":57791,"intl_designator":"2023-134W","name":"STARLINK-30367","alt_names":[],"object_type":"PAYLOAD","status":"ACTIVE","operator":null,"country":"US","launch_date":"2023-09-04","launch_site_code":"AFETR","launch_vehicle":null,"mission":null,"orbit_class":"UNKNOWN","rcs_meters":null,"size_class":null,"mass_kg":null,"dimensions":null,"purposes":["comms"],"wikipedia_slug":null,"has_3d_model":false,"image_url":null,"decayed_at":null,"tle_current":{"epoch":"2026-09-20T04:36:37.995552Z","epoch_age_seconds":175132,"freshness":"STALE","line1":"1 57791U 23134W   26263.19210643 -.00000033  00000+0  83025-5 0  9996","line2":"2 57791  43.0004 176.0168 0000710 308.6631  51.4157 15.27576260169253","mean_motion":15.2757626,"eccentricity":7.1e-5,"inclination_deg":43.0004,"raan_deg":176.0168,"arg_perigee_deg":308.6631,"mean_anomaly_deg":51.4157,"bstar":8.3025e-6,"rev_number":16925,"period_min":94.266979509095,"perigee_km":482.57314996002,"apogee_km":483.5474399759,"semimajor_km":6861.197294968,"source":"CELESTRAK","updated_at":"2026-09-21T09:00:33.706336Z"}}}